Location: Chervonnoye
(48.6000°N, 34.4000°E)
Time: 16:09:36
(UTC+00:00)

CZ-2C R/B - Pass Details

Date: 23 November 2020
Orbit: 705 x 907 km, 98.1° (Epoch: 28 January)

Event Time Altitude Azimuth Distance (km) Brightness Sun altitude
Rises 15:32:44 0° 145° (SE) 3,303 6.1 -15.8°
Reaches altitude 10° 15:35:11 10° 139° (SE) 2,345 5.2 -16.2°
Maximum altitude 15:40:03 44° 69° (ENE) 1,046 3.2 -17.0°
Drops below altitude 10° 15:44:43 10° 358° (N) 2,250 5.3 -17.8°
Sets 15:47:02 0° 352° (N) 3,156 6.2 -18.2°
